Overview Statistics Trail Chart Weather Telemetry Raw packets
 

This is the latest recevied weather packets stored in our database for station/object N9DMT-13. If no packets are shown the sender has not sent any weather packets the latest 10 day(s).

<< 28 29 30 31 32 33 34 >>
Time Temp. Humidity Pressure Rain* Wind** Luminosity Snow
1777692263 1.67° C 79% 986.9 hPa 0 mm - - -
1777691963 1.67° C 79% 987 hPa 0 mm - - -
1777691662 1.67° C 77% 986.9 hPa 0 mm - - -
1777691361 2.22° C 75% 987 hPa 0 mm - - -
1777691061 2.22° C 71% 986.8 hPa 0 mm - - -
1777690760 2.78° C 72% 986.9 hPa 0 mm - - -
1777690459 2.78° C 72% 986.8 hPa 0 mm - - -
1777690158 3.33° C 69% 986.9 hPa 0 mm - - -
1777689858 3.33° C 71% 986.8 hPa 0 mm - - -
1777689557 3.33° C 71% 986.8 hPa 0 mm - - -
1777689256 3.33° C 68% 986.7 hPa 0 mm - - -
1777688955 3.33° C 72% 986.8 hPa 0 mm - - -
1777688655 3.89° C 70% 986.7 hPa 0 mm - - -
1777688354 3.89° C 68% 986.7 hPa 0 mm - - -
1777688053 4.44° C 68% 986.6 hPa 0 mm - - -
1777687752 5° C 65% 986.6 hPa 0 mm - - -
1777687452 5.56° C 59% 986.4 hPa 0 mm - - -
1777687151 5.56° C 54% 986.7 hPa 0 mm - - -
1777686850 6.67° C 52% 986.3 hPa 0 mm - - -
1777686549 6.67° C 48% 986.3 hPa 0 mm - - -
1777686248 6.67° C 48% 986.4 hPa 0 mm - - -
1777685947 6.67° C 47% 986.1 hPa 0 mm - - -
1777685647 7.22° C 47% 986.2 hPa 0 mm - - -
1777685346 7.22° C 46% 986.1 hPa 0 mm - - -
1777685045 7.78° C 44% 986.1 hPa 0 mm - - -

* Rain latest hour (hover to see other rain measurements)
** Current wind speed in m/s (hover to see current wind gust speed)